VELOX 1

Satellite information

Favourite Embed

Satellite Type and Status

PAYLOADIN ORBIT

Key statistics

Satellite VELOX 1 at a glance.

Uptime

3967

Days in orbit

Revolutions

≈ 14.9

Per day

Orbit

SSO

Sun Synchronous Orbit

Inclination

98.3

Latest

Satellite identification and parameters

Extended collection of information and parameters for VELOX 1.

Object identification

Identified? True

Debris? False

Object name: VELOX 1

International designator: 2014-034E

Object number (NORAD): 40057

Object ID (CCSDS): 40057

Country: SINGAPORE (SING)

Current information (Y/N): Y

RCS size: MEDIUM

Orbital parameters

Period: 96.46 minutes

Inclination: 98.2983 deg

SMA: 6967.186 km

Apoapsis: 595.265 km

Periapsis: 582.837 km

RAAN: 7.8293 deg

Eccentricy: 0.0008919

Argument of periapsis: 147.9744 deg

Mean anomaly: 212.2017 deg

Mean motion: 14.92851618 rev/day

Mean motion (dot): 0.00005449 rev/day2

B* drag term: 0.00053173 1/REarth

Two-line elements (TLE)

Creation date: May 10, 2025, 2:32 a.m.

Reference frame: TEME

Reference center: EARTH

Epoch: May 9, 2025, 10:47 p.m. UTC

TLE line 0: 0 VELOX 1

TLE line 1: 1 40057U 14034E 25129.94955401 .00005449 00000-0 53173-3 0 9998

TLE line 2: 2 40057 98.2983 7.8293 0008919 147.9744 212.2017 14.92851618586345

Live tracking on map

Real-time ground track for satellite VELOX 1.

In-orbit conjunctions

There are no conjunctions computed for VELOX 1, at the moment. Check back to stay up to date, as we update our databases every day.

Go to all conjunctions

Associated space launch

VELOX 1 was lifted into orbit during the mission ‘PSLV-CA | SPOT-7, CanX-4, CanX-5, AISat, VELOX-I’, on board a PSLV space rocket.

The launch took place on June 30, 2014, 4:22 a.m. from Satish Dhawan Space Centre First Launch Pad.

For more information about the launch, click the button.

Launch to space PSLV-CA | SPOT-7, CanX-4, CanX-5, AISat, VELOX-I
PSLV-CA | SPOT-7, CanX-4, CanX-5, AISat, VELOX-I

Agency: N/A

Status: Launch Successful

Launch date: June 30, 2014, 4:22 a.m. UTC

Rocket: PSLV

Launch pad: Satish Dhawan Space Centre First Launch Pad

Location: Satish Dhawan Space Centre, India

...

Latest news about this satellite

There are no fresh news available about this satellite. Check back as we update our databases every day.


Newsletter sign-up

Weekly statistics, charts and insights to help you stay on top of the space industry.